Torna al catalogo

DELTA 1 DEB

AttivoSSO
NORAD 42082·DEBRIS·🇺🇸 United States

Lanciato Dec 15, 1968 da Vandenberg Space Force Base

Loading…

Prossimi Passaggi (prossime 24 ore)

TLE

AggiornatoSource: Space-Track

Epoca: Sep 14, 2026, 15:17 UTC

1 42082U 68114J   26257.63701742  .00000091  00000-0  96739-3 0  9995
2 42082 101.9787 205.2905 0086441 141.4452  30.9414 12.42852375581529

Traccia DELTA 1 DEB in tempo reale con AllMySat

Download on the App Store